Preview of NWS' New Version of Forecast
This preview is not operational and should not be used for support decisions.

Regional Weather Roundup (RWR)

Issued by National Weather Service (NWS)

                            
000
ASUS42 KTBW 232115
RWRFL 
FLORIDA REGIONAL WEATHER ROUNDUP
NATIONAL WEATHER SERVICE TAMPA BAY RUSKIN FL
500 PM EDT SUN JUN 23 2019

NOTE: "FAIR" INDICATES FEW OR NO CLOUDS BELOW 12,000 FEET WITH NO
SIGNIFICANT WEATHER AND/OR OBSTRUCTIONS TO VISIBILITY.

FLZ001>010-012>015-112-114-115-232200-
PANHANDLE FLORIDA
  
CITY           SKY/WX    TMP DP  RH WIND       PRES   REMARKS
PENSACOLA      FAIR      89  77  67 S13       30.03F HX 101           
PENSACOLA NAS  PTSUNNY   88  79  74 SW12      30.03F HX 103           
CRESTVIEW      FAIR      94  65  38 SW10      30.03F HX  96           
DUKE FIELD     FAIR      92  69  46 W12G21    30.02F HX  97           
VALPARAISO     FAIR      88  75  65 S9        30.03F HX  98           
MARY ESTHER    MOSUNNY   88  76  66 S7        30.02F HX  99           
TRI COUNTY     FAIR      95  72  47 S9        30.02F HX 103           
PANAMA CITY    FAIR      90  72  55 S10       30.03F HX  97           
TYNDALL AFB    FAIR      88  76  66 SW9       30.03F HX  98           
APALACHICOLA   FAIR      89  75  63 S13       30.04F HX  99           

STATION/POSITION SKY/WX   TEMP    WIND        PRES    WAVE   SWELL
                          AIR SEA DIR/SP/G            HT/PER HT/PER
                          (F)     (DEG/KT/KT) (MB)    (FT/S) (FT/S)
PANAMA CITY BEAC           85 86  220/  7/  8 1018.2F
TOWER C          NOT AVBL

$$
FLZ011-016>038-118-127-128-134-139-239-232200-
NORTH FLORIDA
  
CITY           SKY/WX    TMP DP  RH WIND       PRES   REMARKS
MARIANNA       FAIR      97  68  38 W12       29.99F HX 102           
TALLAHASSEE    FAIR      96  70  42 CALM      30.01F HX 102           
PERRY          FAIR      91  76  60 W12       30.03F HX 103           
LIVE OAK       MOSUNNY   93  70  46 VRB6G12   30.00F HX  99           
CROSS CITY     FAIR      92  73  52 W12       30.03F HX 100           
LAKE CITY      FAIR      91  72  52 W5G10     30.01F HX  98           
GAINESVILLE    FAIR      92  73  53 W6        30.03F HX 100           
PALATKA        FAIR      95  73  49 W8        30.01S HX 105           
MAYPORT NAS    FAIR      89  73  59 SE10      30.00S HX  97           
JACKSONVILLE   PTSUNNY   96  68  39 W7        29.98F HX 101           
JAX NAS        FAIR      96  67  38 NE5       30.00F HX 100           
JAX CECIL      MOSUNNY   99  68  36 VRB5      29.99F HX 104           
FERNANDINA BEA FAIR      87  76  69 SE9       29.99F HX  98           

STATION/POSITION SKY/WX   TEMP    WIND        PRES    WAVE   SWELL
                          AIR SEA DIR/SP/G            HT/PER HT/PER
                          (F)     (DEG/KT/KT) (MB)    (FT/S) (FT/S)
SHELL POINT      NOT AVBL
KEATON BEACH               85     240/ 11/ 12 1017.1F
CEDAR KEY                  86     250/  8/ 10 1017.4F
FERNANDINA                 95 85   90/  4/  6 1016.5F
30.7N   81.3W                 84                N/A     1/ 9
MAYPORT                    90 81  120/  7/ 10 1016.2F
ST AUGUSTINE               82 82  160/  8/ 10 1016.7R

$$
FLZ040-043>046-052-053-057-058-063-144-232200-
INTERIOR CENTRAL FLORIDA
  
CITY           SKY/WX    TMP DP  RH WIND       PRES   REMARKS
OCALA          FAIR      94  73  50 W9        30.03F HX 103           
LEESBURG       FAIR      91  73  55 SE3       30.03F HX  99           
SANFORD        FAIR      84  69  60 SE13      30.05S                  
ORLANDO EXEC   FAIR      82  68  62 E12       30.04S                  
ORLANDO INTL   TSTM      85  71  63 E12       30.05R                  
KISSIMMEE      PTSUNNY   96  71  44 NW6       30.04F HX 103           
WINTER HAVEN   FAIR      96  69  41 W7        30.04F HX 102           
LAKELAND       MOSUNNY   93  70  46 NW6       30.04F HX  99           
SEBRING        MOCLDY    96  70  43 NW10      30.03F HX 102           
OKEECHOBEE     FAIR      93  68  43 NW7       30.03S HX  97           

$$
FLZ041-047-054-059-064-141-147-232200-
EAST CENTRAL FLORIDA
  
CITY           SKY/WX    TMP DP  RH WIND       PRES   REMARKS
ORMOND BEACH   MOSUNNY   91  75  59 SE10      30.03S HX 102           
DAYTONA BEACH  PTSUNNY   80  70  71 SW7G17    30.05R THUNDER          
DELAND         FAIR      88  73  62 E17       30.04R HX  96           
NEW SMYRNA BEA PTSUNNY   79  66  65 SW6       30.05S                  
JFK SPACE CTR  FAIR      76  59  54 SW7       30.05S                  
TITUSVILLE     CLOUDY    73  72  94 S12       30.05F FOG              
CAPE CANAVERAL FAIR      77  34  21 SW6       30.04S                  
PATRICK AFB    FAIR      79  70  73 NE9       30.03F                  
MELBOURNE      FAIR      84  68  58 N8        30.04F                  
VERO BEACH     FAIR      88  76  67 SE7       30.05S HX  99           
FT PIERCE      FAIR      89  74  60 E7        30.04S HX  98           
STUART         MOSUNNY   90  73  58 E7        30.06S HX  98           

STATION/POSITION SKY/WX   TEMP    WIND        PRES    WAVE   SWELL
                          AIR SEA DIR/SP/G            HT/PER HT/PER
                          (F)     (DEG/KT/KT) (MB)    (FT/S) (FT/S)
TRIDENT PIER               76 77  240/ 10/ 17 1019.2F
28.4N   80.5W                 75                N/A     1/11
27.5N   80.2W                 83                N/A     1/10

$$
FLZ050-056-061-142-242-148-248-149-249-151-251-155-255-
160-260-232200-
WEST CENTRAL FLORIDA
  
CITY           SKY/WX    TMP DP  RH WIND       PRES   REMARKS
CRYSTAL RIVER  FAIR     N/A N/A N/A W12       30.04F                  
INVERNESS      FAIR      91  73  55 SW7       30.04S HAZE    HX 100   
BROOKSVILLE    FAIR      92  71  50 W12       30.05F HX  98           
CLEARWATER AIR FAIR      86  72  62 NW8       30.05F                  
ST PETE CLEARW FAIR      89  72  56 NW10      30.05F HX  96           
TAMPA INTL     FAIR      91  71  51 W13       30.05F HX  97           
PLANT CITY       N/A    N/A N/A N/A MISG        N/A                   
MACDILL AFB    FAIR      91  72  52 NW9       30.04F HX  98           
PETER O KNIGHT PTSUNNY   93  72  49 W7        30.05S HX 100           
ST PETERSBURG  FAIR      90  72  55 NW9       30.03F HX  97           
SARASOTA       FAIR      90  75  61 W9        30.03F HX 100           
VENICE         FAIR      91  75  59 W10       30.05F HX 102           

STATION/POSITION SKY/WX   TEMP    WIND        PRES    WAVE   SWELL
                          AIR SEA DIR/SP/G            HT/PER HT/PER
                          (F)     (DEG/KT/KT) (MB)    (FT/S) (FT/S)
27.3N   84.2W                 87                N/A     1/ 7
CLEARWATER BEACH           86 89  290/  7/  9 1018.2F
MIDDLE TAMPA BAY           86     290/  8/ 11 1018.0F
VENICE                     87 86  280/  8/ 10 1017.5F

$$
FLZ066-069-070-075>078-162-262-165-265-232200-
SOUTHWEST FLORIDA AND KEYS
  
CITY           SKY/WX    TMP DP  RH WIND       PRES   REMARKS
PUNTA GORDA    FAIR      93  72  50 SW12      30.04F HX 101           
FT MYERS       FAIR      93  66  40 SW10      30.02F HX  96           
SOUTHWEST INTL FAIR      94  71  47 W9G18     30.02F HX 101           
NAPLES         FAIR      90  77  65 W9        30.03F HX 103           
IMMOKALEE      FAIR     100  68  34 CALM      29.99F HX 106           
MARATHON       FAIR      91  77  63 SE5       30.03F HX 104           
KEY WEST NAS   FAIR      90  76  63 S7        30.03F HX 101           
KEY WEST INTL  FAIR      87  77  72 SE6       30.04F HX  99           

STATION/POSITION SKY/WX   TEMP    WIND        PRES    WAVE   SWELL
                          AIR SEA DIR/SP/G            HT/PER HT/PER
                          (F)     (DEG/KT/KT) (MB)    (FT/S) (FT/S)
NAPLES                     93 89              1017.3F
DRY TORTUGAS     NOT AVBL

$$
FLZ067-068-071>074-168-172>174-232200-
SOUTHEAST FLORIDA 
  
CITY           SKY/WX    TMP DP  RH WIND       PRES   REMARKS
W PALM BEACH   PTSUNNY   90  77  65 E12       30.04F HX 103           
BOCA RATON     SUNNY     93  77  59 SE9       30.03F HX 107           
FT LAUDER-EXEC FAIR      90  73  57 E12       30.03S THUNDER HX  98   
FT LAUDERDALE  FAIR      90  73  57 SE13      30.02F HX  98           
POMPANO BEACH  FAIR      90  76  63 SE13      30.03S HX 101           
PEMBROKE PINES FAIR      93  73  52 E12       30.04S HX 102           
OPA LOCKA      FAIR      93  73  52 SE12      30.03F HX 102           
MIAMI          PTSUNNY   92  72  51 SE9       30.02F HX  99           
WEST KENDALL   PTSUNNY   92  75  57 SE12      30.02F HX 103           
HOMESTEAD      FAIR      92  76  60 E8        30.02F HX 105           

STATION/POSITION SKY/WX   TEMP    WIND        PRES    WAVE   SWELL
                          AIR SEA DIR/SP/G            HT/PER HT/PER
                          (F)     (DEG/KT/KT) (MB)    (FT/S) (FT/S)
VIRGINIA KEY               87 90  100/  8/ 10 1016.9S
LAKE WORTH                 86 86  120/  8/  9 1018.5F
FOWEY ROCKS                85 85  110/  9/ 10 1017.3F
SETTLEMENT POINT           85     290/  3/  4 1017.8F

$$